Location: Roy
(47.3334°N, 108.9587°W)
Time: 14:35:30
(UTC+00:00)

Tiangong - Visible Passes

Search period start: 24 January 2022 00:00
Search period end: 03 February 2022 00:00
Orbit: 383 x 386 km, 41.5° (Epoch: 23 January)

Date Brightness Start Highest point End Pass type
(mag) Time Alt. Az. Time Alt. Az. Time Alt. Az.
28 Jan 3.6 02:04:52 10° SSW 02:05:55 13° S 02:05:55 13° S visible
29 Jan 3.9 02:40:39 10° SW 02:41:18 14° SW 02:41:18 14° SW visible
30 Jan 3.0 01:41:17 10° SSW 01:43:37 19° SSE 01:44:26 17° SE visible
31 Jan 2.8 02:17:31 10° SW 02:19:42 25° SSW 02:19:42 25° SSW visible
01 Feb 2.8 01:17:56 10° SW 01:20:32 23° S 01:22:44 12° ESE visible
01 Feb 4.0 02:54:10 10° WSW 02:54:56 15° WSW 02:54:56 15° WSW visible
02 Feb 2.5 01:54:23 10° WSW 01:57:09 28° S 01:57:57 24° SSE visible
